{"data":{"norad_id":60459,"intl_designator":"2024-148B","name":"YAOGAN-43 01B","alt_names":[],"object_type":"PAYLOAD","status":"ACTIVE","operator":null,"country":"PRC","launch_date":"2024-08-16","launch_site_code":"XICLF","launch_vehicle":null,"mission":null,"orbit_class":"UNKNOWN","rcs_meters":null,"size_class":null,"mass_kg":null,"dimensions":null,"purposes":[],"wikipedia_slug":null,"has_3d_model":false,"image_url":null,"decayed_at":null,"tle_current":{"epoch":"2026-05-25T01:30:11.592288Z","epoch_age_seconds":65634,"freshness":"FRESH","line1":"1 60459U 24148B   26145.06263417  .00012463  00000+0  35470-3 0  9997","line2":"2 60459  34.9928 282.3270 0007926 358.1589   1.9100 15.35258315 98879","mean_motion":15.35258315,"eccentricity":0.0007926,"inclination_deg":34.9928,"raan_deg":282.327,"arg_perigee_deg":358.1589,"mean_anomaly_deg":1.91,"bstar":0.0003547,"rev_number":9887,"period_min":93.7952907293,"perigee_km":454.73330682956,"apogee_km":465.57336466979,"semimajor_km":6838.2903357497,"source":"CELESTRAK","updated_at":"2026-05-25T13:38:02.084886Z"}}}